Temperature
17 17 17 17 17 17 17 16 16 15 14 14 13 13 13 13 13 13 13 13 13 13 13 13 13 13 13 13 13 12 12 12 12 12 12 12 12 12
17 17 17 17 17 16 16 16 16 16 14 14 13 13 13 13 13 13 13 13 13 13 13 13 13 13 12 12 12 12 12 12 12 12 11 11 11 11
16 16 16 16 16 16 16 16 16 15 15 14 13 13 13 13 13 13 13 13 13 12 12 12 12 12 12 12 12 12 12 11 11 11 11 11 11 11
16 16 16 16 16 16 16 16 15 15 15 14 13 13 13 13 12 12 12 12 12 12 12 12 12 12 11 11 11 11 11 11 11 10 10 10 10 10
16 16 16 16 16 15 15 15 15 15 14 14 13 13 13 12 12 12 12 12 12 12 11 11 11 11 11 11 11 11 11 11 10 10 10 10 10 10
16 16 16 15 15 15 15 15 15 14 14 14 13 13 12 12 12 12 12 12 11 11 11 11 11 11 11 11 11 10 10 10 10 10 10 9 9 9
16 16 15 15 15 15 15 14 14 14 14 13 13 12 12 12 12 12 12 12 11 11 11 11 10 10 10 10 10 10 10 10 9 9 9 9 9 9
15 15 15 15 15 14 14 14 14 14 14 13 13 13 12 12 12 12 12 11 11 11 11 11 10 10 10 10 10 10 9 9 9 9 9 9 8 8
15 15 14 14 14 14 14 14 14 13 13 13 13 13 13 12 12 12 12 11 11 11 11 11 10 10 10 10 10 10 9 9 9 9 9 8 8 8
15 14 14 14 14 14 14 14 13 13 13 13 13 13 13 12 12 12 11 11 11 11 11 11 10 10 10 10 10 10 9 9 9 9 8 8 8 8
14 14 14 14 14 14 13 13 13 13 13 13 13 12 12 12 12 11 11 11 11 11 11 11 10 10 10 10 10 9 9 9 9 9 8 8 8 8
14 14 14 14 14 13 13 13 13 13 13 12 12 12 12 12 11 11 11 11 11 11 11 10 10 10 10 10 10 9 9 9 9 8 8 8 8 8
14 14 14 14 13 13 13 13 12 12 12 12 12 12 11 11 11 11 11 11 11 11 11 10 10 10 10 9 9 9 9 9 9 9 8 8 8 8
14 14 13 13 13 13 13 12 12 12 12 12 12 11 11 11 11 11 11 11 11 11 10 10 10 10 10 9 9 9 9 9 9 9 8 8 8 8
14 13 13 13 13 13 13 12 12 12 12 12 12 12 11 11 11 11 11 11 11 10 10 10 10 10 10 10 9 9 9 9 9 9 8 8 8 8
13 13 13 13 13 13 12 12 12 12 12 12 12 11 11 11 11 11 11 10 10 10 10 10 10 10 10 10 10 9 9 9 9 9 8 8 8 8
13 13 12 12 12 12 12 12 12 12 11 11 11 11 11 11 11 11 10 10 10 10 10 10 10 10 10 10 9 9 9 9 9 9 8 8 8 8
13 13 13 12 12 12 12 12 12 11 11 11 11 11 11 11 11 11 10 10 10 10 10 10 10 10 9 9 9 9 9 9 9 8 8 8 8 8
13 12 12 12 12 12 12 12 11 11 11 11 11 11 11 11 11 10 10 10 10 10 10 10 10 9 9 9 9 9 9 9 9 8 8 8 8 8
13 12 12 12 12 12 12 12 11 11 11 11 11 11 11 10 10 10 10 10 10 10 10 10 10 9 9 9 9 9 9 9 9 8 8 8 8 8
13 12 12 12 12 12 12 12 11 11 11 11 11 10 10 10 10 10 10 10 10 10 10 10 10 9 9 9 9 9 9 9 9 8 8 8 8 7
12 12 12 12 12 12 12 11 11 11 11 10 10 10 10 10 10 10 10 10 10 10 10 10 9 9 9 9 9 9 9 9 8 8 8 8 8 7
12 12 12 12 12 11 11 11 11 11 10 10 10 10 10 10 10 10 10 10 10 9 9 9 9 9 9 9 9 9 9 8 8 8 8 8 8 8
Wind_Speed
2 3 2 1 1 1 2 3 3 3 2 2 1 3 6 8 9 10 10 12 12 12 12 12 12 12 12 12 12 12 11 11 10 10 10 9 9 8
2 3 2 1 1 0 1 1 2 3 3 2 2 2 4 7 10 11 11 12 11 11 11 11 11 12 12 12 12 12 12 12 11 11 10 10 10 9
3 4 3 3 2 2 2 2 3 4 5 3 3 2 3 4 7 9 10 9 9 10 11 12 12 13 12 12 12 12 12 11 11 11 11 11 11 11
4 4 3 3 3 2 2 3 3 4 6 6 4 3 2 3 4 5 7 8 9 10 11 12 12 12 12 12 12 12 12 11 11 11 11 11 11 11
4 4 4 4 3 2 3 3 3 4 5 6 5 3 2 3 3 4 5 6 9 11 11 11 11 12 11 11 11 11 11 10 10 10 11 11 10 10
4 4 4 4 3 2 3 3 3 4 4 5 5 4 3 2 3 3 4 3 4 8 9 10 11 11 10 9 9 9 9 9 9 9 9 9 9 9
4 5 5 6 7 4 3 3 3 3 3 4 5 4 3 3 2 2 3 3 3 4 5 7 8 7 7 7 7 7 7 7 7 7 7 7 8 8
3 3 4 5 6 7 7 6 5 4 3 3 3 4 4 3 1 2 2 3 2 2 3 4 6 4 7 7 8 7 6 6 5 5 5 5 5 5
3 2 3 4 4 3 4 5 6 5 4 4 4 4 4 3 3 2 2 2 1 2 2 2 3 4 7 9 11 10 8 7 6 5 4 3 3 3
3 3 4 4 4 3 3 4 4 4 3 3 3 2 3 2 1 2 3 2 2 2 2 2 3 3 5 9 13 12 10 8 7 6 5 4 4 3
3 4 4 4 6 6 3 4 4 3 5 7 6 6 6 4 2 1 2 2 2 2 1 1 2 2 3 4 11 14 13 11 10 8 6 5 5 5
3 4 6 5 5 6 2 2 3 2 3 3 3 4 5 4 3 2 2 1 1 1 1 1 1 1 1 2 6 10 11 12 12 11 9 8 6 5
3 3 3 4 3 3 3 1 1 1 1 3 3 3 3 3 3 3 2 1 0 0 1 1 1 1 1 1 2 5 8 8 10 10 11 11 10 8
1 2 3 5 2 0 0 0 0 1 1 2 3 3 3 3 3 3 3 2 2 2 2 2 1 1 1 1 1 3 5 7 7 6 8 9 11 11
2 4 5 5 4 2 4 3 2 2 2 2 3 3 3 3 3 3 2 3 4 4 4 4 2 2 2 2 2 2 2 3 5 4 4 4 6 6
2 3 5 5 4 3 3 3 3 3 3 3 2 2 2 3 3 3 3 3 2 2 3 5 5 3 3 3 2 2 2 2 3 3 3 3 5 6
3 3 3 3 3 3 3 3 3 3 3 3 2 1 2 3 3 2 2 2 2 2 2 2 4 5 4 3 2 2 2 2 2 3 3 3 3 4
4 4 4 4 4 4 4 4 4 3 3 3 2 2 2 3 3 2 2 3 3 2 2 2 2 2 2 2 3 3 2 3 2 3 3 3 3 3
4 5 4 4 4 4 4 4 4 4 3 3 3 3 2 2 2 2 3 3 3 3 3 2 2 2 3 4 4 5 3 2 2 3 3 3 4 4
5 5 4 4 4 4 4 3 3 3 3 3 3 3 3 3 3 3 3 3 3 3 3 3 3 3 4 4 3 3 7 4 3 3 3 3 2 2
6 5 5 4 4 4 3 2 2 2 2 3 3 3 3 3 3 3 3 4 4 3 3 3 4 5 4 2 3 3 4 9 7 4 3 3 3 3
5 5 4 3 3 2 2 2 2 2 2 2 2 3 3 3 3 3 3 3 2 2 3 2 2 3 3 4 4 4 4 5 7 8 7 6 3 3
5 4 4 3 3 2 2 2 3 2 2 3 3 3 3 3 3 3 3 2 2 3 3 2 2 2 3 4 3 3 3 3 3 4 5 10 13 12
Wind_Direction
21 34 26 10 60 111 146 157 148 142 128 128 110 90 103 104 108 102 95 93 93 92 90 87 85 81 78 77 74 73 71 70 70 71 67 63 59 56
38 48 32 24 41 62 139 124 110 130 128 120 104 111 113 120 116 112 104 100 100 100 98 94 90 87 83 80 77 75 74 73 71 68 67 66 62 61
35 42 35 28 24 32 56 89 106 116 124 117 108 109 91 104 120 121 118 110 105 105 102 97 93 89 86 83 81 78 75 73 71 69 67 66 65 62
44 39 36 43 40 39 58 79 104 120 135 135 138 137 126 128 140 146 132 125 119 115 113 109 103 98 92 87 83 80 77 75 71 69 67 66 64 62
47 44 39 41 41 48 68 84 102 118 129 137 145 143 145 148 142 132 128 130 129 130 125 118 113 106 99 95 91 87 83 80 76 73 70 68 66 64
57 52 45 41 37 49 76 84 103 114 129 140 146 149 146 156 147 148 132 133 132 138 133 133 128 117 111 107 102 97 94 90 85 81 76 71 69 69
70 66 66 69 61 56 71 74 104 124 134 142 142 134 133 145 158 157 140 134 129 133 140 147 144 135 131 125 118 114 109 104 96 89 82 78 75 74
76 84 96 80 73 79 83 82 86 108 128 133 135 144 148 152 151 149 148 149 154 157 151 161 157 157 153 147 149 142 135 129 122 113 104 93 85 82
68 51 71 75 73 77 93 96 78 75 99 131 139 149 151 159 164 158 143 161 166 178 163 162 157 153 151 157 162 162 162 160 158 156 153 148 129 119
70 65 79 66 40 41 99 94 88 64 71 115 129 132 136 125 155 157 160 157 169 173 154 173 170 160 154 165 177 179 180 183 185 189 192 195 197 191
87 62 73 74 43 36 84 96 96 96 83 97 114 131 142 145 120 120 155 176 182 170 164 187 161 143 155 169 188 192 193 198 203 208 215 225 227 223
114 97 81 79 60 37 64 101 117 117 109 108 118 152 173 181 188 189 183 198 193 161 166 183 180 146 165 173 177 192 204 214 217 223 228 235 237 228
147 135 122 111 88 37 20 59 138 147 177 169 172 176 182 186 192 185 172 170 201 164 160 171 209 195 177 167 179 188 195 200 208 221 228 232 232 227
119 122 135 148 135 78 355 225 227 275 220 201 187 184 187 191 194 179 182 186 199 195 182 172 210 209 221 219 204 191 197 196 190 200 208 223 228 229
81 118 152 178 187 204 217 228 230 242 238 232 215 197 189 182 176 178 196 209 224 225 197 187 205 229 230 239 220 192 199 203 190 192 194 199 207 211
153 155 182 208 235 238 216 216 228 243 243 245 230 195 175 173 189 191 201 207 215 221 209 199 205 218 235 245 215 210 201 198 188 185 194 214 216 205
167 177 200 207 207 211 213 218 228 237 246 248 242 208 185 188 195 191 199 222 224 212 203 217 218 224 223 232 237 219 204 211 201 190 195 221 224 203
186 209 213 215 216 213 217 218 218 227 235 235 232 226 215 210 205 192 193 219 236 223 202 201 207 220 247 254 231 240 227 215 213 198 204 220 228 212
207 225 221 217 223 229 228 224 218 217 222 224 229 233 228 221 213 207 210 221 233 228 215 202 200 219 244 253 246 227 228 226 211 213 215 221 224 214
224 230 231 221 221 231 234 228 221 209 207 221 232 242 239 233 231 218 217 230 232 230 222 211 208 217 236 247 243 233 220 213 214 222 228 232 235 222
227 226 231 233 228 223 224 223 225 218 214 225 226 231 238 237 238 234 234 236 239 238 231 228 222 214 221 229 247 234 222 217 216 213 218 228 236 230
233 226 225 232 235 233 221 216 221 216 213 227 238 238 234 239 246 243 237 228 225 243 252 240 220 218 229 236 248 247 225 212 226 236 239 230 215 225
236 232 222 219 222 220 221 220 222 222 217 226 234 240 238 232 241 245 242 232 230 251 261 248 234 238 242 238 248 258 252 223 213 215 238 244 240 240
Height
1539 1539 1540 1540 1540 1540 1541 1541 1542 1543 1545 1546 1546 1547 1546 1546 1545 1545 1544 1544 1544 1543 1542 1542 1541 1541 1540 1540 1540 1539 1539 1539 1539 1539 1538 1538 1538 1537
1539 1539 1538 1539 1539 1539 1540 1540 1540 1541 1542 1544 1545 1546 1546 1546 1546 1545 1545 1545 1544 1544 1543 1543 1542 1541 1541 1540 1540 1539 1539 1538 1538 1538 1538 1537 1537 1536
1538 1538 1538 1538 1538 1538 1539 1539 1539 1540 1541 1543 1544 1545 1546 1546 1546 1545 1545 1545 1545 1545 1544 1543 1543 1542 1541 1541 1540 1540 1539 1539 1538 1538 1537 1537 1536 1535
1538 1537 1537 1537 1537 1537 1538 1538 1538 1539 1540 1541 1543 1544 1545 1546 1546 1545 1546 1546 1545 1545 1544 1544 1543 1543 1542 1542 1541 1540 1540 1539 1538 1538 1537 1536 1536 1535
1537 1537 1537 1536 1536 1537 1537 1537 1538 1539 1540 1540 1542 1543 1544 1545 1546 1547 1547 1546 1546 1546 1545 1545 1544 1544 1543 1543 1542 1541 1540 1540 1539 1538 1537 1536 1536 1535
1537 1537 1536 1536 1536 1536 1536 1537 1537 1538 1539 1540 1541 1543 1544 1545 1546 1546 1546 1547 1547 1546 1546 1546 1545 1545 1544 1544 1543 1542 1541 1540 1539 1539 1538 1537 1536 1535
1537 1536 1536 1536 1536 1536 1536 1536 1537 1538 1538 1539 1540 1541 1542 1543 1544 1545 1546 1546 1547 1547 1546 1546 1546 1545 1545 1544 1543 1543 1542 1541 1540 1539 1538 1537 1536 1535
1537 1537 1536 1536 1536 1536 1536 1536 1536 1537 1537 1538 1539 1540 1541 1542 1543 1544 1545 1545 1546 1547 1546 1546 1546 1545 1545 1544 1544 1543 1542 1541 1541 1540 1539 1538 1537 1536
1537 1537 1537 1536 1536 1535 1535 1536 1536 1536 1537 1537 1538 1538 1539 1540 1542 1543 1543 1544 1544 1545 1546 1546 1546 1545 1545 1545 1544 1543 1543 1542 1541 1540 1539 1539 1538 1537
1537 1537 1536 1536 1536 1536 1535 1535 1535 1536 1536 1537 1537 1538 1539 1539 1540 1542 1542 1543 1544 1544 1545 1545 1545 1545 1544 1544 1544 1543 1543 1542 1541 1541 1540 1539 1538 1538
1537 1536 1536 1536 1536 1536 1535 1535 1535 1535 1536 1536 1537 1537 1538 1539 1539 1540 1541 1542 1542 1543 1543 1544 1544 1544 1543 1543 1543 1543 1543 1542 1541 1541 1540 1539 1539 1538
1536 1536 1536 1536 1536 1535 1535 1535 1534 1535 1535 1536 1536 1537 1537 1538 1538 1539 1540 1540 1541 1541 1542 1542 1542 1543 1542 1542 1542 1542 1542 1541 1541 1540 1540 1539 1538 1537
1535 1535 1535 1535 1535 1535 1535 1535 1535 1535 1535 1535 1536 1536 1536 1537 1537 1538 1538 1539 1539 1539 1539 1540 1540 1540 1540 1540 1540 1540 1540 1540 1539 1539 1539 1538 1537 1537
1534 1534 1534 1534 1534 1534 1534 1534 1534 1534 1534 1535 1535 1535 1535 1536 1536 1536 1537 1537 1537 1538 1538 1538 1538 1538 1538 1538 1538 1538 1538 1538 1538 1537 1537 1537 1536 1536
1533 1533 1533 1533 1533 1533 1533 1533 1533 1533 1534 1534 1534 1534 1534 1534 1534 1535 1535 1535 1535 1536 1536 1535 1535 1535 1536 1536 1535 1535 1535 1535 1535 1535 1535 1534 1534 1534
1531 1531 1532 1532 1532 1531 1531 1532 1532 1532 1532 1532 1532 1532 1532 1532 1532 1532 1532 1533 1533 1533 1533 1533 1533 1533 1533 1533 1533 1533 1533 1533 1533 1533 1532 1532 1532 1531
1528 1529 1529 1530 1530 1530 1529 1530 1530 1530 1530 1530 1530 1530 1530 1530 1530 1530 1530 1531 1531 1530 1530 1531 1531 1530 1531 1531 1530 1530 1530 1530 1530 1530 1530 1529 1529 1529
1526 1526 1526 1527 1527 1527 1527 1527 1527 1527 1527 1528 1528 1528 1527 1527 1527 1527 1528 1528 1528 1528 1528 1528 1528 1528 1528 1528 1528 1527 1527 1527 1527 1527 1527 1526 1526 1526
1522 1522 1523 1524 1524 1524 1524 1524 1524 1524 1524 1525 1525 1525 1525 1525 1525 1525 1525 1525 1525 1525 1525 1525 1525 1525 1524 1524 1523 1524 1524 1524 1524 1523 1523 1523 1522 1522
1518 1519 1520 1520 1520 1521 1521 1521 1521 1521 1521 1521 1521 1522 1522 1521 1521 1522 1522 1522 1522 1522 1522 1522 1521 1521 1521 1521 1520 1520 1520 1520 1520 1519 1519 1519 1519 1519
1515 1515 1516 1516 1517 1517 1517 1517 1517 1517 1517 1517 1518 1518 1518 1518 1518 1518 1518 1519 1519 1519 1518 1518 1517 1518 1517 1518 1517 1516 1516 1516 1516 1516 1515 1515 1515 1515
1511 1511 1511 1512 1513 1513 1513 1513 1513 1514 1514 1514 1514 1514 1514 1514 1514 1515 1515 1515 1515 1515 1515 1515 1514 1514 1514 1514 1513 1513 1512 1512 1512 1512 1512 1512 1511 1511
1506 1507 1507 1508 1508 1508 1509 1509 1509 1510 1510 1510 1511 1510 1510 1510 1510 1511 1511 1512 1511 1511 1511 1511 1510 1510 1510 1510 1509 1509 1509 1508 1508 1508 1508 1508 1508 1508